Location: Central Falls
(41.8900°N, 71.3929°W)
Time: 07:10:06
(UTC+00:00)

Altair - Pass Details

Date: 06 December 2023
Orbit: 1501 x 1682 km, 47.2° (Epoch: 29 February)

Event Time Altitude Azimuth Distance (km) Brightness Sun altitude
Rises 20:55:03 0° 289° (WNW) 4,658 10.6 2.2°
Reaches altitude 10° 20:59:30 10° 271° (W) 3,658 10.6 1.5°
Maximum altitude 21:04:43 17° 235° (SW) 3,139 11.0 0.7°
Drops below altitude 10° 21:09:57 10° 199° (SSW) 3,646 10.4 -0.1°
Sets 21:14:25 0° 181° (S) 4,636 10.5 -0.8°
